STARLINK-11535

Satellite information

Favourite Embed

Satellite Type and Status

PAYLOADIN ORBIT

Key statistics

Satellite STARLINK-11535 at a glance.

Uptime

328

Days in orbit

Revolutions

≈ 15.7

Per day

Orbit

LEO

Low Earth Orbit

Inclination

43.0

Latest

Satellite identification and parameters

Extended collection of information and parameters for STARLINK-11535.

Object identification

Identified? True

Debris? False

Object name: STARLINK-11535

International designator: 2025-008J

Object number (NORAD): 62595

Object ID (CCSDS): 62595

Country: UNITED STATES OF AMERICA (US)

Current information (Y/N): Y

RCS size: LARGE

Orbital parameters

Period: 91.666 minutes

Inclination: 42.9999 deg

SMA: 6734.397 km

Apoapsis: 357.186 km

Periapsis: 355.338 km

RAAN: 328.2082 deg

Eccentricy: 0.00013724

Argument of periapsis: 278.4718 deg

Mean anomaly: 81.5995 deg

Mean motion: 15.70922285 rev/day

Mean motion (dot): 0.00222213 rev/day2

B* drag term: 0.00168354 1/REarth

Two-line elements (TLE)

Creation date: Dec. 6, 2025, 5:59 p.m.

Reference frame: TEME

Reference center: EARTH

Epoch: Dec. 6, 2025, 9:09 a.m. UTC

TLE line 0: 0 STARLINK-11535

TLE line 1: 1 62595U 25008J 25340.38179324 .00222213 00000-0 16835-2 0 9990

TLE line 2: 2 62595 42.9999 328.2082 0001372 278.4718 81.5995 15.70922285 52461

Live tracking on map

Real-time ground track for satellite STARLINK-11535.

In-orbit conjunctions

There are no conjunctions computed for STARLINK-11535, at the moment. Check back to stay up to date, as we update our databases every day.

Go to all conjunctions

Associated space launch

A batch of 21 satellites for the Starlink mega-constellation - SpaceX's project for space-based Internet communication system.

STARLINK-11535 was lifted into orbit during the mission ‘Falcon 9 Block 5 | Starlink Group 12-4’, on board a Falcon 9 space rocket.

The launch took place on Jan. 13, 2025, 4:47 p.m. from Space Launch Complex 40.

For more information about the launch, click the button.

Launch to space Falcon 9 Block 5 | Starlink Group 12-4
Falcon 9 Block 5 | Starlink Group 12-4

Agency: SpaceX

Status: Launch Successful

Launch date: Jan. 13, 2025, 4:47 p.m. UTC

Rocket: Falcon 9

Launch pad: Space Launch Complex 40

Location: Cape Canaveral SFS, FL, USA

...

Latest news about this satellite

News about space launch
Live coverage: SpaceX to launch 21 Starlink satellites on Falcon 9 rocket from Cape Canaveral

The mission comes as SpaceX is preparing for a week that includes a rideshare flight; a dual-manifest, Moon bound missions; and Starship Flight 7. Liftoff from pad 40 at Cape Canaveral Space Force Station is set for 10:08 am EST (1508 UTC).


Newsletter sign-up

Weekly statistics, charts and insights to help you stay on top of the space industry.